Regional Weather Roundup
Issued by NWS Bismarck, ND

Home | Current Version | Previous Version | Text Only | Print | Product List | Glossary On
Versions: 1 2 3 4 5 6 7 8 9 10 11 12 13 14 15 16 17 18 19 20 21 22 23 24 25 26 27 28 29 30 31 32 33 34 35 36 37 38 39 40 41 42 43 44 45 46 47 48 49 50
000
ASUS43 KBIS 190059
RWRBIS

NWR BROADCAST TEXT
NATIONAL WEATHER SERVICE BISMARCK ND
800 PM CDT FRI APR 18 2014

NOTE: "FAIR" INDICATES FEW OR NO CLOUDS BELOW 12,000 FEET WITH NO
SIGNIFICANT WEATHER AND/OR OBSTRUCTIONS TO VISIBILITY.


CITY           SKY/WX    TMP DP  RH WIND       PRES   REMARKS
WILLISTON      RAIN      48  44  86 W7        29.68R FOG
MINOT          CLOUDY    47  33  58 E20G31    29.73R
MINOT AFB      NOT AVBL
BISMARCK       CLOUDY    53  38  56 E17G28    29.65F
DICKINSON      CLOUDY    58  38  47 SE7       29.60S
GARRISON         N/A     48  35  60 E17G24    29.69R
HETTINGER ARPT CLOUDY    62  41  46 E6        29.59F
JAMESTOWN      NOT AVBL
CARRINGTON     FAIR      45  36  70 SE32G45   29.80F
CROSBY         LGT RAIN  45  45 100 SE8       29.69F
HARVEY         FAIR      45  34  65 SE26G38   29.75F
LINTON         FAIR      64  41  42 SE22G31   29.60F
OAKES          FAIR      46  37  71 E31G41    29.82F
RUGBY          FAIR      45  32  61 SE26G39   29.78F
$$

CITY           SKY/WX    TMP DP  RH WIND       PRES   REMARKS
GRAND FORKS    CLOUDY    47  28  47 SE24G39   29.98F
GRAND FORKS AF NOT AVBL
DEVILS LAKE    CLOUDY    45  28  53 SE25G31   29.85F
FARGO          CLOUDY    45  28  51 E24G36    29.97F
GRAFTON        FAIR      46  32  57 SE16G23   29.98F
GWINNER        CLEAR     48  36  61 SE30G41   29.90F
$$

CITY           SKY/WX    TMP DP  RH WIND       PRES   REMARKS
ABERDEEN       PTCLDY    61  38  42 SE23G35   29.77F
MOBRIDGE       CLOUDY    65  37  35 SE21      29.54F
RAPID CITY     MOCLDY    70  42  36 CALM      29.61R
GLASGOW        HVY RAIN  42  39  89 W26G53    29.71R FOG
SIDNEY         CLOUDY    50  46  87 E12       29.63F
WOLF POINT     PTCLDY    50  46  86 S3        29.65F
GLENDIVE       CLOUDY    50  45  81 N3        29.66R
MILES CITY     MOCLDY    56  41  57 W6        29.67R
BAKER          LGT RAIN  48  43  82 N15       29.67F
$$

CITY           SKY/WX    TMP DP  RH WIND       PRES   REMARKS
BILLINGS       PTSUNNY   48  31  51 NW22G31   29.78R
GREAT FALLS    PTSUNNY   45  16  31 SW30G37   29.77R
ESTEVAN        LGT RAIN N/A N/A N/A SE17        N/A
$$




USA.gov is the U.S. government's official web portal to all federal, state and local government web resources and services.